CST,Max TemperatureF,Mean TemperatureF,Min TemperatureF,Max Dew PointF,MeanDew PointF,Min DewpointF,Max Humidity, Mean Humidity, Min Humidity, Max Sea Level PressureIn, Mean Sea Level PressureIn, Min Sea Level PressureIn, Max VisibilityMiles, Mean VisibilityMiles, Min VisibilityMiles, Max Wind SpeedMPH, Mean Wind SpeedMPH, Max Gust SpeedMPH,PrecipitationIn, CloudCover, Events, WindDirDegrees
2012-10-1,86,79,72,75,74,72,95,80,65,29.91,29.84,29.79,12,8,6,10,5,,0.00,7,Rain,148
2012-10-2,88,80,71,76,73,70,94,77,63,29.93,29.86,29.80,12,8,6,12,3,,0.00,6,Rain-Thunderstorm,280
2012-10-3,91,82,73,75,72,70,100,72,46,29.92,29.87,29.81,12,8,6,15,6,,0.00,5,,85
2012-10-4,90,81,72,73,71,68,83,65,43,29.96,29.90,29.83,12,7,6,17,7,,0.00,6,,93
2012-10-5,88,78,69,75,71,68,100,69,55,29.93,29.86,29.80,12,8,2,10,4,,0.00,6,Rain,88
2012-10-6,92,80,68,75,71,66,91,67,48,29.86,29.81,29.73,12,8,6,7,4,,0.00,5,,179
2012-10-7,90,80,71,75,72,70,95,71,47,29.88,29.83,29.77,12,8,6,8,3,,0.00,6,,128
2012-10-8,86,79,72,75,73,72,94,85,62,29.95,29.89,29.86,12,6,0,14,5,,1.34,6,Fog-Rain-Thunderstorm,136
2012-10-9,85,79,73,76,74,72,94,85,70,29.97,29.91,29.85,12,8,6,7,3,,0.04,6,Rain,183
2012-10-10,86,79,72,75,73,72,100,88,70,29.99,29.91,29.84,12,8,6,9,4,,0.04,7,Rain-Thunderstorm,160
2012-10-11,92,81,70,75,72,69,100,73,41,29.92,29.86,29.79,12,6,0,17,5,,0.00,6,Fog,135
2012-10-12,91,82,74,73,72,70,89,67,52,29.93,29.87,29.80,12,7,6,14,7,,0.00,5,,94
2012-10-13,90,80,71,75,73,70,94,77,47,29.91,29.84,29.78,12,7,6,12,4,,0.00,6,Rain-Thunderstorm,164
2012-10-14,86,78,70,75,73,71,100,89,66,29.93,29.88,29.83,12,6,0,10,3,,0.00,7,Fog-Rain-Thunderstorm,222
2012-10-15,87,80,72,74,73,72,100,80,60,29.94,29.87,29.80,12,8,6,12,3,,0.00,6,Fog,238
2012-10-16,85,78,71,75,73,71,94,84,68,29.94,29.86,29.81,12,7,6,13,5,,0.67,6,Rain,254
2012-10-17,82,76,71,75,73,71,94,84,71,29.95,29.89,29.84,12,7,6,13,4,,0.00,5,Fog-Rain,266
2012-10-18,84,78,72,74,73,72,94,85,61,29.94,29.89,29.82,12,6,1,10,5,,0.16,6,Fog-Rain,194
2012-10-19,87,80,73,73,73,72,100,83,67,29.92,29.86,29.81,12,8,6,5,3,,0.00,6,Rain,167
2012-10-20,86,80,73,75,73,72,96,79,62,29.91,29.84,29.76,12,6,2,12,4,,0.00,5,Fog-Rain,248
2012-10-21,86,80,74,75,74,73,94,82,65,29.93,29.84,29.76,12,7,3,12,6,,0.00,6,Fog-Rain,263
2012-10-22,86,80,73,79,74,72,94,81,69,29.87,29.79,29.71,12,8,6,10,5,,0.04,6,Rain-Thunderstorm,291
2012-10-23,84,78,71,75,74,70,94,81,63,29.83,29.76,29.69,12,8,6,10,5,,0.00,5,Fog-Rain,266
2012-10-24,77,75,73,74,73,72,97,93,87,29.87,29.81,29.75,12,7,3,8,4,,0.39,6,Rain,107
2012-10-25,76,74,72,74,72,72,100,94,89,29.90,29.85,29.80,9,5,3,6,5,,0.39,6,Fog-Rain,127
2012-10-26,85,78,72,75,73,71,94,84,66,29.93,29.86,29.80,12,7,5,8,4,,0.79,6,Fog-Rain,137
2012-10-27,87,79,71,75,74,72,100,80,61,29.91,29.83,29.75,12,7,0,9,4,,0.16,5,Fog-Rain,274
2012-10-28,90,80,69,73,69,64,100,66,36,29.91,29.84,29.78,12,7,0,16,6,,0.00,4,Fog,60
2012-10-29,90,79,68,70,69,68,94,64,41,29.94,29.88,29.81,12,9,6,9,5,,0.00,6,,240
2012-10-30,90,78,67,70,68,66,91,60,37,29.96,29.89,29.83,12,8,6,20,7,,0.00,5,,80
2012-10-31,90,79,68,68,67,64,91,59,40,29.96,29.90,29.84,12,8,6,14,8,,0.00,3,,115